Huaquan222 — BSOX — position and weather

sailwx.info

Track history (hours):
 
Tides and Currents Weather Stations Pressure Air Temp Water Temp Dewpoint Dewpoint Depression Visibility Wind Speed Wind Dir Waves Ship Positions

Huaquan222

Last reported at 2014-Nov-27 22:33 UTC. Time now 2014-Nov-27 23:06 UTC.
Position N 22°02' E 113°39'.

Length 67 m; draft 2.1 m.

Type: Dredging. MMSI: 413467440.

Date/timePositionNaut miles runAvg speedWind from/ knotsBaromVisibWave heightAir tempDewpointWater temp
2014-Nov-27 22:33N 22°02' E 113°39'7 6.8
2014-Nov-27 21:33N 22°09' E 113°41'6 6.0
2014-Nov-27 20:33N 22°13' E 113°46'5 0.4
2014-Nov-27 09:12N 22°16' E 113°50'0 0.0
2014-Nov-27 08:33N 22°16' E 113°50'0 0.3
2014-Nov-27 07:33N 22°16' E 113°49'0 0.1
2014-Nov-27 06:33N 22°16' E 113°49'0 0.1
2014-Nov-27 05:33N 22°16' E 113°49'0 0.1
2014-Nov-27 04:32N 22°16' E 113°49'0 0.0
2014-Nov-27 03:22N 22°16' E 113°49'0 0.1
2014-Nov-27 02:33N 22°16' E 113°49'0 0.0
2014-Nov-27 01:32N 22°16' E 113°49'0 0.0
2014-Nov-27 00:33N 22°16' E 113°49'0 0.0
2014-Nov-26 23:33N 22°16' E 113°49'0 0.0
2014-Nov-26 22:33N 22°16' E 113°49'0 0.0
2014-Nov-26 21:33N 22°16' E 113°49'0 0.0
2014-Nov-26 20:33N 22°16' E 113°49'0 0.0
2014-Nov-26 19:33N 22°16' E 113°49'0 0.0
2014-Nov-26 18:33N 22°16' E 113°49'0 0.0
2014-Nov-26 17:33N 22°16' E 113°49'0 0.1
2014-Nov-26 16:33N 22°16' E 113°49'0 0.0
2014-Nov-26 15:31N 22°16' E 113°49'0 0.0
2014-Nov-26 14:29N 22°16' E 113°49'0 0.1
2014-Nov-26 13:33N 22°16' E 113°49'0 0.0
2014-Nov-26 12:33N 22°16' E 113°49'0 0.0
2014-Nov-26 11:33N 22°16' E 113°49'0 0.0
2014-Nov-26 10:33N 22°16' E 113°49'0 0.1
2014-Nov-26 09:33N 22°16' E 113°49'0 0.0
2014-Nov-26 08:33N 22°16' E 113°49'0 0.1
2014-Nov-26 07:33N 22°16' E 113°49'0 0.0
2014-Nov-26 06:33N 22°16' E 113°49'0 0.0
2014-Nov-26 05:33N 22°16' E 113°49'0 0.0
2014-Nov-26 04:33N 22°16' E 113°49'0 0.1
2014-Nov-26 03:33N 22°16' E 113°49'0 0.1
2014-Nov-26 02:33N 22°16' E 113°49'0 0.0
2014-Nov-26 01:32N 22°16' E 113°49'0 0.1
2014-Nov-26 00:33N 22°16' E 113°49'0 0.0
2014-Nov-25 23:33N 22°16' E 113°49'0 0.0
2014-Nov-25 13:17N 22°16' E 113°49'0 0.1
2014-Nov-25 12:33N 22°16' E 113°49'0 0.1
2014-Nov-25 11:33N 22°16' E 113°49'0 0.1
2014-Nov-25 10:33N 22°16' E 113°49'0 0.0
2014-Nov-25 09:33N 22°16' E 113°49'0 0.0
2014-Nov-25 08:33N 22°16' E 113°49'0 0.1
2014-Nov-25 07:33N 22°16' E 113°49'0 0.0
2014-Nov-25 06:33N 22°16' E 113°49'0 0.0
2014-Nov-25 05:33N 22°16' E 113°49'0 0.0
2014-Nov-25 04:33N 22°16' E 113°49'0 0.0
2014-Nov-25 03:33N 22°16' E 113°49'0 0.0
2014-Nov-25 02:33N 22°16' E 113°49'0 0.2
2014-Nov-25 01:33N 22°16' E 113°50'0 0.0
2014-Nov-25 00:33N 22°16' E 113°50'0 0.0
2014-Nov-24 23:33N 22°16' E 113°50'0 0.0
2014-Nov-24 22:33N 22°16' E 113°50'0 0.0
2014-Nov-24 21:33N 22°16' E 113°50'0 0.0
2014-Nov-24 20:33N 22°16' E 113°50'0 0.0
2014-Nov-24 19:33N 22°16' E 113°50'0 0.0
2014-Nov-24 18:33N 22°16' E 113°50'0 0.0
2014-Nov-24 17:33N 22°16' E 113°50'0 0.0
2014-Nov-24 16:33N 22°16' E 113°50'0 0.0
2014-Nov-24 15:33N 22°16' E 113°50'0 0.0
2014-Nov-24 14:33N 22°16' E 113°50'0 0.0
2014-Nov-24 13:33N 22°16' E 113°50'0 0.0
2014-Nov-24 12:33N 22°16' E 113°50'0 0.0
2014-Nov-24 11:33N 22°16' E 113°50'0 0.0
2014-Nov-24 10:33N 22°16' E 113°50'0 0.0
2014-Nov-24 08:15N 22°16' E 113°50'0 0.0
2014-Nov-24 07:33N 22°16' E 113°50'0 0.0
2014-Nov-24 06:33N 22°16' E 113°50'0 0.0
2014-Nov-24 05:33N 22°16' E 113°50'0 0.0
2014-Nov-24 04:33N 22°16' E 113°50'0 0.0
2014-Nov-24 03:32N 22°16' E 113°50'1 0.7
2014-Nov-24 02:29N 22°17' E 113°50'0 0.0
2014-Nov-24 01:32N 22°17' E 113°50'1 0.1
2014-Nov-23 13:29N 22°16' E 113°49'0 0.0
2014-Nov-23 12:33N 22°16' E 113°49'0 0.0
2014-Nov-23 11:32N 22°16' E 113°49'0 0.3
2014-Nov-23 10:27N 22°16' E 113°49'1 1.3
2014-Nov-23 09:29N 22°16' E 113°48'2 1.7
2014-Nov-23 08:33N 22°16' E 113°49'0 0.0
2014-Nov-23 06:33N 22°16' E 113°49'0 0.0
2014-Nov-23 05:33N 22°16' E 113°49'0 0.0
2014-Nov-23 04:33N 22°16' E 113°49'1 0.7
2014-Nov-23 03:33N 22°17' E 113°50'0 0.0
2014-Nov-23 02:33N 22°17' E 113°50'0 0.0
2014-Nov-23 01:33N 22°17' E 113°50'0 0.0
2014-Nov-23 00:32N 22°17' E 113°50'0 0.0
2014-Nov-22 23:32N 22°17' E 113°50'1 0.0
2014-Nov-22 09:33N 22°16' E 113°49'0 0.0
2014-Nov-22 08:33N 22°17' E 113°49'0 0.4
2014-Nov-22 07:33N 22°16' E 113°49'2 1.2
2014-Nov-22 06:20N 22°15' E 113°48'2 2.4
2014-Nov-22 05:33N 22°16' E 113°49'0 0.0
2014-Nov-22 04:32N 22°16' E 113°49'0 0.3
2014-Nov-22 03:33N 22°16' E 113°49'0 0.1
2014-Nov-22 02:33N 22°16' E 113°49'0 0.4
2014-Nov-22 01:33N 22°16' E 113°49'0 0.0
2014-Nov-22 00:33N 22°16' E 113°49'0 0.0
2014-Nov-21 14:33N 22°16' E 113°49'0 0.0
2014-Nov-21 13:33N 22°17' E 113°49'0 0.3
2014-Nov-21 12:33N 22°16' E 113°49'0 0.1
2014-Nov-21 11:33N 22°16' E 113°49'0 0.1
2014-Nov-21 10:33N 22°16' E 113°49'0 0.0
2014-Nov-21 09:33N 22°16' E 113°49'0 0.0
2014-Nov-21 08:33N 22°16' E 113°49'0 0.0
2014-Nov-21 07:33N 22°16' E 113°49'1 1.0
2014-Nov-21 06:24N 22°16' E 113°48'1 1.8
2014-Nov-21 05:33N 22°17' E 113°49'0 0.0
2014-Nov-21 04:34N 22°17' E 113°49'0 0.0
2014-Nov-21 03:31N 22°17' E 113°49'0 0.0
2014-Nov-21 02:33N 22°17' E 113°49'1 0.6
2014-Nov-21 01:26N 22°17' E 113°50'0 0.0
2014-Nov-21 00:28N 22°17' E 113°50'1 0.0
2014-Nov-20 09:33N 22°17' E 113°49'0 0.4
2014-Nov-20 08:33N 22°17' E 113°49'0 0.1
2014-Nov-20 07:33N 22°17' E 113°50'2 1.3
2014-Nov-20 06:11N 22°16' E 113°48'1 2.2
2014-Nov-20 05:33N 22°17' E 113°49'0 0.5
2014-Nov-20 04:33N 22°17' E 113°49'0 0.0
2014-Nov-20 03:33N 22°17' E 113°49'0 0.1
2014-Nov-20 02:33N 22°17' E 113°49'2 1.4
2014-Nov-20 01:16N 22°16' E 113°48'2 2.3
2014-Nov-20 00:34N 22°17' E 113°49'0 0.0
2014-Nov-19 23:33N 22°17' E 113°49'0 0.0
2014-Nov-19 22:33N 22°17' E 113°49'0 0.0
2014-Nov-19 14:33N 22°17' E 113°49'0 0.2
2014-Nov-19 13:34N 22°17' E 113°49'0 0.0
2014-Nov-19 12:33N 22°17' E 113°49'0 0.0
2014-Nov-19 11:34N 22°17' E 113°49'0 0.3
2014-Nov-19 10:34N 22°17' E 113°49'0 0.0
2014-Nov-19 09:33N 22°17' E 113°49'5 5.2
2014-Nov-19 08:33N 22°14' E 113°45'5 5.1
2014-Nov-19 07:32N 22°09' E 113°42'4 4.1
2014-Nov-19 06:33N 22°06' E 113°40'3 3.4
2014-Nov-19 05:33N 22°03' E 113°39'5 4.6
2014-Nov-19 04:27N 21°58' E 113°38'3 0.9
2014-Nov-19 01:33N 21°55' E 113°37'5 5.3
2014-Nov-19 00:33N 22°00' E 113°38'6 5.6
2014-Nov-18 23:33N 22°06' E 113°40'5 5.2
2014-Nov-18 22:34N 22°10' E 113°42'5 5.0
2014-Nov-18 21:34N 22°14' E 113°46'5 4.6
2014-Nov-18 20:34N 22°17' E 113°50'0 0.0
2014-Nov-18 19:34N 22°17' E 113°50'0 0.0
2014-Nov-18 18:34N 22°17' E 113°50'0 0.0
2014-Nov-18 17:34N 22°17' E 113°50'0 0.0
2014-Nov-18 16:34N 22°17' E 113°50'0 0.0
2014-Nov-18 15:33N 22°17' E 113°50'0 0.0
2014-Nov-18 14:34N 22°17' E 113°50'0 0.0
2014-Nov-18 13:33N 22°17' E 113°50'0 0.0
2014-Nov-18 12:33N 22°17' E 113°50'0 0.0
2014-Nov-18 11:34N 22°17' E 113°50'0 0.1
2014-Nov-18 10:34N 22°17' E 113°50'0 0.0
2014-Nov-18 09:33N 22°17' E 113°50'0 0.0
2014-Nov-18 08:32N 22°17' E 113°50'0 0.0
2014-Nov-18 07:33N 22°17' E 113°50'0 0.0
2014-Nov-18 06:33N 22°17' E 113°50'0 0.0
2014-Nov-18 05:34N 22°17' E 113°50'0 0.1
2014-Nov-18 04:33N 22°17' E 113°50'0 0.0
2014-Nov-18 03:34N 22°17' E 113°50'0 0.0
2014-Nov-18 02:33N 22°17' E 113°50'0 0.0
2014-Nov-18 01:34N 22°17' E 113°50'0 0.3
2014-Nov-18 00:34N 22°17' E 113°50'0 0.4
2014-Nov-17 23:34N 22°17' E 113°50'  
Track history (hours):
 
Tides and Currents Weather Stations Pressure Air Temp Water Temp Dewpoint Dewpoint Depression Visibility Wind Speed Wind Dir Waves Ship Positions

Huaquan222

Last reported at 2014-Nov-27 22:33 UTC. Time now 2014-Nov-27 23:06 UTC.
Position N 22°02' E 113°39'.

Length 67 m; draft 2.1 m.

Type: Dredging. MMSI: 413467440.

Date/timePositionNaut miles runAvg speedWind from/ knotsBaromVisibWave heightAir tempDewpointWater temp
2014-Nov-27 22:33N 22°02' E 113°39'7 6.8
2014-Nov-27 21:33N 22°09' E 113°41'6 6.0
2014-Nov-27 20:33N 22°13' E 113°46'5 0.4
2014-Nov-27 09:12N 22°16' E 113°50'0 0.0
2014-Nov-27 08:33N 22°16' E 113°50'0 0.3
2014-Nov-27 07:33N 22°16' E 113°49'0 0.1
2014-Nov-27 06:33N 22°16' E 113°49'0 0.1
2014-Nov-27 05:33N 22°16' E 113°49'0 0.1
2014-Nov-27 04:32N 22°16' E 113°49'0 0.0
2014-Nov-27 03:22N 22°16' E 113°49'0 0.1
2014-Nov-27 02:33N 22°16' E 113°49'0 0.0
2014-Nov-27 01:32N 22°16' E 113°49'0 0.0
2014-Nov-27 00:33N 22°16' E 113°49'0 0.0
2014-Nov-26 23:33N 22°16' E 113°49'0 0.0
2014-Nov-26 22:33N 22°16' E 113°49'0 0.0
2014-Nov-26 21:33N 22°16' E 113°49'0 0.0
2014-Nov-26 20:33N 22°16' E 113°49'0 0.0
2014-Nov-26 19:33N 22°16' E 113°49'0 0.0
2014-Nov-26 18:33N 22°16' E 113°49'0 0.0
2014-Nov-26 17:33N 22°16' E 113°49'0 0.1
2014-Nov-26 16:33N 22°16' E 113°49'0 0.0
2014-Nov-26 15:31N 22°16' E 113°49'0 0.0
2014-Nov-26 14:29N 22°16' E 113°49'0 0.1
2014-Nov-26 13:33N 22°16' E 113°49'0 0.0
2014-Nov-26 12:33N 22°16' E 113°49'0 0.0
2014-Nov-26 11:33N 22°16' E 113°49'0 0.0
2014-Nov-26 10:33N 22°16' E 113°49'0 0.1
2014-Nov-26 09:33N 22°16' E 113°49'0 0.0
2014-Nov-26 08:33N 22°16' E 113°49'0 0.1
2014-Nov-26 07:33N 22°16' E 113°49'0 0.0
2014-Nov-26 06:33N 22°16' E 113°49'0 0.0
2014-Nov-26 05:33N 22°16' E 113°49'0 0.0
2014-Nov-26 04:33N 22°16' E 113°49'0 0.1
2014-Nov-26 03:33N 22°16' E 113°49'0 0.1
2014-Nov-26 02:33N 22°16' E 113°49'0 0.0
2014-Nov-26 01:32N 22°16' E 113°49'0 0.1
2014-Nov-26 00:33N 22°16' E 113°49'0 0.0
2014-Nov-25 23:33N 22°16' E 113°49'0 0.0
2014-Nov-25 13:17N 22°16' E 113°49'0 0.1
2014-Nov-25 12:33N 22°16' E 113°49'0 0.1
2014-Nov-25 11:33N 22°16' E 113°49'0 0.1
2014-Nov-25 10:33N 22°16' E 113°49'0 0.0
2014-Nov-25 09:33N 22°16' E 113°49'0 0.0
2014-Nov-25 08:33N 22°16' E 113°49'0 0.1
2014-Nov-25 07:33N 22°16' E 113°49'0 0.0
2014-Nov-25 06:33N 22°16' E 113°49'0 0.0
2014-Nov-25 05:33N 22°16' E 113°49'0 0.0
2014-Nov-25 04:33N 22°16' E 113°49'0 0.0
2014-Nov-25 03:33N 22°16' E 113°49'0 0.0
2014-Nov-25 02:33N 22°16' E 113°49'0 0.2
2014-Nov-25 01:33N 22°16' E 113°50'0 0.0
2014-Nov-25 00:33N 22°16' E 113°50'0 0.0
2014-Nov-24 23:33N 22°16' E 113°50'0 0.0
2014-Nov-24 22:33N 22°16' E 113°50'0 0.0
2014-Nov-24 21:33N 22°16' E 113°50'0 0.0
2014-Nov-24 20:33N 22°16' E 113°50'0 0.0
2014-Nov-24 19:33N 22°16' E 113°50'0 0.0
2014-Nov-24 18:33N 22°16' E 113°50'0 0.0
2014-Nov-24 17:33N 22°16' E 113°50'0 0.0
2014-Nov-24 16:33N 22°16' E 113°50'0 0.0
2014-Nov-24 15:33N 22°16' E 113°50'0 0.0
2014-Nov-24 14:33N 22°16' E 113°50'0 0.0
2014-Nov-24 13:33N 22°16' E 113°50'0 0.0
2014-Nov-24 12:33N 22°16' E 113°50'0 0.0
2014-Nov-24 11:33N 22°16' E 113°50'0 0.0
2014-Nov-24 10:33N 22°16' E 113°50'0 0.0
2014-Nov-24 08:15N 22°16' E 113°50'0 0.0
2014-Nov-24 07:33N 22°16' E 113°50'0 0.0
2014-Nov-24 06:33N 22°16' E 113°50'0 0.0
2014-Nov-24 05:33N 22°16' E 113°50'0 0.0
2014-Nov-24 04:33N 22°16' E 113°50'0 0.0
2014-Nov-24 03:32N 22°16' E 113°50'1 0.7
2014-Nov-24 02:29N 22°17' E 113°50'0 0.0
2014-Nov-24 01:32N 22°17' E 113°50'1 0.1
2014-Nov-23 13:29N 22°16' E 113°49'0 0.0
2014-Nov-23 12:33N 22°16' E 113°49'0 0.0
2014-Nov-23 11:32N 22°16' E 113°49'0 0.3
2014-Nov-23 10:27N 22°16' E 113°49'1 1.3
2014-Nov-23 09:29N 22°16' E 113°48'2 1.7
2014-Nov-23 08:33N 22°16' E 113°49'0 0.0
2014-Nov-23 06:33N 22°16' E 113°49'0 0.0
2014-Nov-23 05:33N 22°16' E 113°49'0 0.0
2014-Nov-23 04:33N 22°16' E 113°49'1 0.7
2014-Nov-23 03:33N 22°17' E 113°50'0 0.0
2014-Nov-23 02:33N 22°17' E 113°50'0 0.0
2014-Nov-23 01:33N 22°17' E 113°50'0 0.0
2014-Nov-23 00:32N 22°17' E 113°50'0 0.0
2014-Nov-22 23:32N 22°17' E 113°50'1 0.0
2014-Nov-22 09:33N 22°16' E 113°49'0 0.0
2014-Nov-22 08:33N 22°17' E 113°49'0 0.4
2014-Nov-22 07:33N 22°16' E 113°49'2 1.2
2014-Nov-22 06:20N 22°15' E 113°48'2 2.4
2014-Nov-22 05:33N 22°16' E 113°49'0 0.0
2014-Nov-22 04:32N 22°16' E 113°49'0 0.3
2014-Nov-22 03:33N 22°16' E 113°49'0 0.1
2014-Nov-22 02:33N 22°16' E 113°49'0 0.4
2014-Nov-22 01:33N 22°16' E 113°49'0 0.0
2014-Nov-22 00:33N 22°16' E 113°49'0 0.0
2014-Nov-21 14:33N 22°16' E 113°49'0 0.0
2014-Nov-21 13:33N 22°17' E 113°49'0 0.3
2014-Nov-21 12:33N 22°16' E 113°49'0 0.1
2014-Nov-21 11:33N 22°16' E 113°49'0 0.1
2014-Nov-21 10:33N 22°16' E 113°49'0 0.0
2014-Nov-21 09:33N 22°16' E 113°49'0 0.0
2014-Nov-21 08:33N 22°16' E 113°49'0 0.0
2014-Nov-21 07:33N 22°16' E 113°49'1 1.0
2014-Nov-21 06:24N 22°16' E 113°48'1 1.8
2014-Nov-21 05:33N 22°17' E 113°49'0 0.0
2014-Nov-21 04:34N 22°17' E 113°49'0 0.0
2014-Nov-21 03:31N 22°17' E 113°49'0 0.0
2014-Nov-21 02:33N 22°17' E 113°49'1 0.6
2014-Nov-21 01:26N 22°17' E 113°50'0 0.0
2014-Nov-21 00:28N 22°17' E 113°50'1 0.0
2014-Nov-20 09:33N 22°17' E 113°49'0 0.4
2014-Nov-20 08:33N 22°17' E 113°49'0 0.1
2014-Nov-20 07:33N 22°17' E 113°50'2 1.3
2014-Nov-20 06:11N 22°16' E 113°48'1 2.2
2014-Nov-20 05:33N 22°17' E 113°49'0 0.5
2014-Nov-20 04:33N 22°17' E 113°49'0 0.0
2014-Nov-20 03:33N 22°17' E 113°49'0 0.1
2014-Nov-20 02:33N 22°17' E 113°49'2 1.4
2014-Nov-20 01:16N 22°16' E 113°48'2 2.3
2014-Nov-20 00:34N 22°17' E 113°49'0 0.0
2014-Nov-19 23:33N 22°17' E 113°49'0 0.0
2014-Nov-19 22:33N 22°17' E 113°49'0 0.0
2014-Nov-19 14:33N 22°17' E 113°49'0 0.2
2014-Nov-19 13:34N 22°17' E 113°49'0 0.0
2014-Nov-19 12:33N 22°17' E 113°49'0 0.0
2014-Nov-19 11:34N 22°17' E 113°49'0 0.3
2014-Nov-19 10:34N 22°17' E 113°49'0 0.0
2014-Nov-19 09:33N 22°17' E 113°49'5 5.2
2014-Nov-19 08:33N 22°14' E 113°45'5 5.1
2014-Nov-19 07:32N 22°09' E 113°42'4 4.1
2014-Nov-19 06:33N 22°06' E 113°40'3 3.4
2014-Nov-19 05:33N 22°03' E 113°39'5 4.6
2014-Nov-19 04:27N 21°58' E 113°38'3 0.9
2014-Nov-19 01:33N 21°55' E 113°37'5 5.3
2014-Nov-19 00:33N 22°00' E 113°38'6 5.6
2014-Nov-18 23:33N 22°06' E 113°40'5 5.2
2014-Nov-18 22:34N 22°10' E 113°42'5 5.0
2014-Nov-18 21:34N 22°14' E 113°46'5 4.6
2014-Nov-18 20:34N 22°17' E 113°50'0 0.0
2014-Nov-18 19:34N 22°17' E 113°50'0 0.0
2014-Nov-18 18:34N 22°17' E 113°50'0 0.0
2014-Nov-18 17:34N 22°17' E 113°50'0 0.0
2014-Nov-18 16:34N 22°17' E 113°50'0 0.0
2014-Nov-18 15:33N 22°17' E 113°50'0 0.0
2014-Nov-18 14:34N 22°17' E 113°50'0 0.0
2014-Nov-18 13:33N 22°17' E 113°50'0 0.0
2014-Nov-18 12:33N 22°17' E 113°50'0 0.0
2014-Nov-18 11:34N 22°17' E 113°50'0 0.1
2014-Nov-18 10:34N 22°17' E 113°50'0 0.0
2014-Nov-18 09:33N 22°17' E 113°50'0 0.0
2014-Nov-18 08:32N 22°17' E 113°50'0 0.0
2014-Nov-18 07:33N 22°17' E 113°50'0 0.0
2014-Nov-18 06:33N 22°17' E 113°50'0 0.0
2014-Nov-18 05:34N 22°17' E 113°50'0 0.1
2014-Nov-18 04:33N 22°17' E 113°50'0 0.0
2014-Nov-18 03:34N 22°17' E 113°50'0 0.0
2014-Nov-18 02:33N 22°17' E 113°50'0 0.0
2014-Nov-18 01:34N 22°17' E 113°50'0 0.3
2014-Nov-18 00:34N 22°17' E 113°50'0 0.4
2014-Nov-17 23:34N 22°17' E 113°50'  

Dump ship's entire track history